NOAA 16 DEB, 41213

Orbit data source: Space-Track

NOAA 16 DEB, 41213 is space debris in SSO originally from a launch on Thu, 21 Sep 2000 UTC launched from the Air Force Western Test Range (AFWTR). Debris objects in space refer to the collection of defunct objects orbiting the Earth. Examples of debris include non-operational satellites, rocket bodies, and fragments generated from explosions, collisions, or faulty payload assembly.

Loading next visibility...
Identifier
41213, 2000-055DS
Orbit
SSO
Country
Flag of USUS
Related business
Manufacturer
Unknown
Mission
Spacecraft
Bus & Motor
Unknown
Mass
Unknown
Launch date (UTC)
2000-09-21 (25 years ago)
Launch vehicle
Unknown
Launch site
Air Force Western Test Range (AFWTR)
Object type
Payload
Rocket body
Debris
Shape & HBR
Unknown shape, 0.1 m
Radar Cross Section
Small (<0.1 m²)

Expand to show TLE details & history
Last TLE update: 1 day ago

TLE from 1 day ago
0 NOAA 16 DEB
1 41213U 00055DS  25292.51478420  .00088585  00000-0  10392-1 0  9992
2 41213  98.9630 137.4530 0004481 213.5394 146.5534 14.84474408513039
Epoch: 2025-10-19T12:21Z
TLE epoch observation values (Epoch: 2025-10-19T12:21:17.354Z)
Latitude
-0.00004°
Longitude
-76.09965°
Altitude
620.845 km
Speed
7.547 km/s
True Right ascension
09h 09m 48s
True Declination
0° 00' 00"
Sunlit
Object was in daylight at epoch
Visualization orbit readout
Latitude
Unknown
Longitude
Unknown
Altitude
Unknown
Speed
Unknown
Apparent Right ascension
Unknown
Apparent Declination
Unknown
Sunlit
N/A
Visualization observer readout
Local Sidereal Time
11:40:51
Azimuth
Unknown
Elevation
Unknown
Doppler factor
Unknown
Orbital elements
Apogee altitude
615.454 km
Perigee altitude
609.189 km
Semi-major axis
6,990.459 km
Eccentricity
0.00045
Inclination
98.963°
RAAN
137.453°
Arg. of periapsis
213.5394°
True anomaly
146.58169°
Mean anomaly
146.5534°
Eccentric anomaly
146.56755°
Mean motion
3.71351 °/min
Orbital period
96.94 mins
BSTAR
0.010392
Loading maneuver chart data...
Computing Atmospheric mass density...
Loading historical data...
Loading historical data...
Loading historical data...
Loading historical data...
Loading historical data...
Loading historical data...
Loading historical data...

Documentation

Showing up to 5 results
|